International Virtual Aviation Organisation

Eastern Europe and Northern Asia MCD

 

Карточка аэропорта UIII

Внимание!
Информация на этой странице в стадии наполнения.
Если вы не увидели какой-то информации, или заметили неточность - пожалуйста сообщите нам!
Спасибо!
Команда RU-STAFF
Название аэропортаИркутск
Название аэропорта (англ.)Irkutsk
Превышение1686 ft. (513.9 m.)
Координаты52°16.032', 104°23.7'
Высота перехода1100m
Эшелон переходаFL070
Коды ответчика3330-3347
Зона ОрВДИркутск РПИ (UIII)
Данные METARUIII 110230Z 33008MPS 9999 BKN049 01/M13 Q1035 R30/CLRD60 NOSIG RMK QFE730/0974
Проноз погоды (TAF)UIII 110200Z 1103/1203 32010G16MPS CAVOK BECMG 1109/1111 30005MPS BECMG 1115/1116 10003MPS
NOTAMshow/hide NOTAM
AWOS   TABLE

Информация о ВПП

ВПП Длина ВПП (м.) Покрытие Курс ВПП Частота ILS
303565Железобетон297110.3
123565Железобетон117111.3

Диспетчерские позиции

Позывной Наименование органа УВД Частота
UIII_APPИркутск-Подход125.2
UIII_R_APPИркутск-Круг119.3
UIII_TWRИркутск-Вышка118.1
UIII_GNDИркутск-Руление121.7
UIII_FSSИркутск-Транзит128.5



Спутниковое изображение